Regional Weather Roundup
Issued by NWS

Home | Current Version | Previous Version | Graphics & Text | Print | Product List | Glossary On
Versions: 1 2 3 4 5 6 7 8 9 10 11 12 13 14 15 16 17 18 19 20 21 22 23 24 25 26 27 28 29 30 31 32 33 34 35 36 37 38 39 40 41 42 43 44 45 46 47 48 49 50
000
ASUS43 KLOT 280203
RWRIL

ILLINOIS REGIONAL WEATHER ROUNDUP
NATIONAL WEATHER SERVICE CHICAGO/ROMEOVILLE IL
800 PM CST MON FEB 27 2017

NOTE: "FAIR" INDICATES FEW OR NO CLOUDS BELOW 12,000 FEET WITH NO
SIGNIFICANT WEATHER AND/OR OBSTRUCTIONS TO VISIBILITY.

* THESE STATIONS ARE NOT UNDER NWS QUALITY CONTROL. THEY ALSO MAY NOT
  REPORT WEATHER SUCH AS PRECIPITATION OR FOG.

ILZ001-002-007-009-015-016-024-280300-
NORTHWEST ILLINOIS

CITY           SKY/WX    TMP DP  RH WIND       PRES   REMARKS
MOLINE         CLOUDY    47  33  58 E10       29.94F
STERLING*      PTCLDY    44  36  73 E7        29.99F
$$

ILZ003-004-008-010-011-017-018-280300-
NORTH CENTRAL ILLINOIS

CITY           SKY/WX    TMP DP  RH WIND       PRES   REMARKS
ROCKFORD       CLOUDY    46  33  60 SE8       30.03F
FREEPORT*      CLOUDY    41  34  76 E7        30.01F
ROCHELLE*      CLOUDY    40  35  81 SE9       30.02F
DE KALB*       CLOUDY    45  34  65 SE9       30.03F
PERU*          PTCLDY    49  34  55 SE13      30.01F
$$

ILZ005-006-012>014-019>023-280300-
NORTHEAST ILLINOIS

CITY           SKY/WX    TMP DP  RH WIND       PRES   REMARKS
CHICAGO-OHARE  CLOUDY    45  34  65 SE9       30.06S
CHICAGO-MIDWAY CLOUDY    50  33  52 SE9       30.07S
AURORA         CLOUDY    45  33  63 SE8       30.04F
LANSING*       CLOUDY    46  37  71 SE8       30.08S
JOLIET*        PTCLDY    49  37  64 SE6       30.06S
WAUKEGAN       CLOUDY    40  34  79 SE8       30.05F
DUPAGE AIRPORT CLOUDY    45  31  58 SE7       30.04S
KANKAKEE*      MOCLDY    45  36  70 CALM      30.09S
WHEELING       CLOUDY    43  33  68 SE5       30.07S
MORRIS*        CLOUDY    47  35  63 SE8       30.04S
ROMEOVILLE*    CLOUDY    47  38  71 SE12      30.06S
NORTHERLY ISL    N/A     41  35  79 SE7         N/A
$$

LMZ740>746-280300-
SOUTHERN LAKE MICHIGAN

STATION/POSITION SKY/WX   TEMP    WIND        PRES    VSBY  WAVE
                          AIR SEA DIR/SP/G                  HT/PER
                          (F)     (DEG/KT/KT) (MB)    (MI)  (FT/S)
HARRISON CRIB              44     150/ 14/ 16   N/A
BURNHAM HARBOR             41     120/  5/  7   N/A
CALUMET HARBOR             49     130/  7/ 11 1017.8
BURNS HARBOR               49     140/  9/ 15 1019.3S
MICHIGAN CITY              48     130/  9/ 11   N/A
$$

ILZ025>027-034>036-040-047-049-050-058-095>099-280300-
WEST-CENTRAL ILLINOIS

CITY           SKY/WX    TMP DP  RH WIND       PRES   REMARKS
QUINCY         CLOUDY    53  37  54 SE13      29.90F
GALESBURG*     MOCLDY    50  33  52 SE6       29.96S
MACOMB*        MOCLDY    52  33  49 SE13      29.96F
JACKSONVILLE*  CLOUDY    53  40  60 SE10      29.96S
PITTSFIELD*    CLOUDY    55  40  58 SE13      29.94F
$$

ILZ028>032-037-038-041>044-048-051>054-059>061-280300-
CENTRAL ILLINOIS

CITY           SKY/WX    TMP DP  RH WIND       PRES   REMARKS
PONTIAC        PTCLDY    45  38  74 SE8       30.05S
BLOOMINGTON    PTCLDY    49  39  68 SE15      30.03F
DECATUR        CLOUDY    50  41  71 SE13      30.03F
PEORIA         CLOUDY    52  35  52 SE10      29.98F
LACON*         PTCLDY    49  35  58 SE9       29.99F
LINCOLN*       CLOUDY    52  40  64 SE9       30.00F
SPRINGFIELD    MOCLDY    56  40  55 SE15      29.99F
TAYLORVILLE    CLOUDY    53  43  69 SE12      30.01S
$$

ILZ033-039-045-046-055>057-062-063-280300-
EAST-CENTRAL ILLINOIS

CITY           SKY/WX    TMP DP  RH WIND       PRES   REMARKS
CHAMPAIGN      CLOUDY    49  40  71 SE12      30.06F
RANTOUL*       CLOUDY    49  42  78 SE9       30.07S
MATTOON        CLOUDY    50  44  80 SE13      30.05F
$$

ILZ079-100>102-280300-
SOUTHWEST ILLINOIS

CITY           SKY/WX    TMP DP  RH WIND       PRES   REMARKS
ALTON          MOCLDY    55  45  67 SE10      29.98F
BELLEVILLE     CLOUDY    57  48  71 E10       30.00F
CAHOKIA*       CLOUDY    59  46  62 S15G23    29.99R
SPARTA*        CLOUDY    56  47  70 SE7       30.04S
$$

ILZ064>066-069>071-074>076-080>082-084>086-088>090-092>094-280300-
SOUTH-CENTRAL ILLINOIS

CITY           SKY/WX    TMP DP  RH WIND       PRES   REMARKS
CARBONDALE     PTCLDY    55  47  74 SE6       30.05S
CAIRO*         CLEAR     57  48  71 SE7       30.08R
EFFINGHAM*     PTCLDY    51  46  83 E10       30.08F
MARION         MOCLDY    55  46  71 SE6       30.07S
MT. VERNON     CLOUDY    54  46  74 E9        30.06F
CENTRALIA*     CLOUDY    55  47  74 SE9       30.04F
SALEM*         CLOUDY    56  45  66 SE8       30.06S
METROPOLIS*    CLEAR     58  46  65 CALM      30.09R
$$

ILZ067-068-072-073-078-083-087-091-280300-
SOUTHEAST ILLINOIS

CITY           SKY/WX    TMP DP  RH WIND       PRES   REMARKS
LAWRENCEVILLE  PTCLDY    47  42  83 E8        30.12R
FLORA*         PTCLDY    52  46  79 SE10      30.07F
FAIRFIELD*     CLOUDY    52  46  79 E5        30.07F
HARRISBURG*    PTCLDY    51  46  84 SE5       30.09S
ROBINSON*      PTCLDY    48  44  86 SE7       30.12F
CARMI*         CLOUDY    50  46  83 E3        30.09S
$$

ABBREVIATIONS USED IN REMARKS
   TC - TEMPERATURE IN CELSIUS
  WCI - WIND CHILL INDEX
   HX - HEAT INDEX
  VSB - VISIBILITY
$$




USA.gov is the U.S. government's official web portal to all federal, state and local government web resources and services.